This is the latest recevied weather packets stored in our database for station/object KA1JKB. If no packets are shown the sender has not sent any weather packets the latest 10 day(s).
| Time | Temp. | Humidity | Pressure | Rain* | Wind** | Luminosity | Snow |
|---|---|---|---|---|---|---|---|
| 1777420029 | 15° C | 75% | 1009.8 hPa | 0 mm | - | 32 W/m² | - |
| 1777419726 | 15° C | 74% | 1009.9 hPa | 0 mm | - | 35 W/m² | - |
| 1777419424 | 15° C | 74% | 1010 hPa | 0 mm | - | 38 W/m² | - |
| 1777419124 | 15° C | 75% | 1010.2 hPa | 0 mm | - | 42 W/m² | - |
| 1777418823 | 15° C | 75% | 1010.1 hPa | 0 mm | - | 47 W/m² | - |
| 1777418520 | 15.56° C | 73% | 1010.2 hPa | 0 mm | - | 58 W/m² | - |
| 1777418216 | 15.56° C | 71% | 1010.1 hPa | 0 mm | - | 64 W/m² | - |
| 1777417912 | 15.56° C | 73% | 1010.2 hPa | 0 mm | - | 81 W/m² | - |
| 1777417608 | 15.56° C | 74% | 1010 hPa | 0 mm | - | 147 W/m² | - |
| 1777417304 | 15.56° C | 73% | 1010 hPa | 0 mm | - | 177 W/m² | - |
| 1777417001 | 15.56° C | 72% | 1010 hPa | 0 mm | - | 176 W/m² | - |
| 1777416696 | 16.11° C | 72% | 1010.3 hPa | 0 mm | - | 170 W/m² | - |
| 1777416392 | 16.11° C | 71% | 1010.1 hPa | 0 mm | - | 235 W/m² | - |
| 1777416091 | 15.56° C | 73% | 1010.1 hPa | 0 mm | - | 219 W/m² | - |
| 1777415786 | 16.11° C | 72% | 1010.2 hPa | 0 mm | - | 247 W/m² | - |
| 1777415482 | 16.11° C | 71% | 1009.7 hPa | 0 mm | - | 256 W/m² | - |
| 1777415179 | 16.11° C | 70% | 1009.8 hPa | 0 mm | - | 286 W/m² | - |
| 1777414874 | 16.11° C | 73% | 1009.9 hPa | 0 mm | - | 293 W/m² | - |
| 1777414573 | 16.67° C | 73% | 1009.7 hPa | 0 mm | - | 136 W/m² | - |
| 1777414268 | 15.56° C | 74% | 1009.7 hPa | 0 mm | - | 409 W/m² | - |
| 1777413963 | 15.56° C | 73% | 1009.8 hPa | 0 mm | - | 179 W/m² | - |
| 1777413659 | 15.56° C | 76% | 1009.7 hPa | 0 mm | - | 217 W/m² | - |
| 1777413355 | 15.56° C | 76% | 1009.5 hPa | 0 mm | - | 152 W/m² | - |
| 1777413051 | 16.11° C | 74% | 1009.7 hPa | 0 mm | - | 132 W/m² | - |
| 1777412746 | 16.11° C | 73% | 1009.3 hPa | 0 mm | - | 417 W/m² | - |
* Rain latest hour (hover to see other rain measurements)
** Current wind speed in m/s (hover to see current wind gust speed)